Weather History for Bellingham, WA

Change the Weather History Date:

Saturday, October 22, 2011

  Actual Average Record
Temperature  
Mean Temperature 54 °F 48 °F  
Max Temperature 57 °F 56 °F 68 °F (1965)
Min Temperature 51 °F 41 °F 29 °F (1984)
Degree Days  
Heating Degree Days 11 17  
Month to date heating degree days 313  
Cooling Degree Days 0 0  
Month to date cooling degree days 0  
Year to date cooling degree days 42  
Growing Degree Days 4 (Base 50)    
Moisture  
Dew Point 51 °F    
Average Humidity 90    
Maximum Humidity 97    
Minimum Humidity 77    
Precipitation  
Precipitation 0.53 in 0.13 in 0.92 in (1993)
Month to date precipitation 2.29  
Year to date precipitation 24.42  
Sea Level Pressure  
Sea Level Pressure 30.14 in    
Wind  
Wind Speed 4 mph (SE)    
Max Wind Speed 10 mph    
Max Gust Speed -    
Visibility 8 miles    
Events Rain    
T = Trace of Precipitation, MM = Missing Value Source: NWS Daily Summary

Daily Weather History Graph

Daily Weather History Graph

Search for Another Location

Airport:

Trip Planner

Search our weather history database for the weather conditions in past years. The results will help you decide how hot, cold, wet, or windy it might be!

Date:

Astronomy

Oct. 22, 2011 Rise Set
Actual Time 7:40 AM PDT 6:07 PM PDT
Civil Twilight 7:08 AM PDT 6:39 PM PDT
Nautical Twilight 6:32 AM PDT 7:16 PM PDT
Astronomical Twilight 5:55 AM PDT 7:52 PM PDT
Moon 2:21 AM PDT (10/22) 3:47 PM PDT (10/22)
Length of Visible Light 11h 30m
Length of Day
10h 26m
Waning Crescent, 22% of the Moon is Illuminated
Oct 22
Waning Crescent
Oct 26
New
Nov 2
First Quarter
Nov 10
Full
Nov 18
Last Quarter

Hourly Weather History & Observations

Time (PDT) Temp. Dew Point Humidity Pressure Visibility Wind Dir Wind Speed Gust Speed Precip Events Conditions
12:53 AM 52.0 °F 50.0 °F 93% 30.22 in 10.0 mi Calm Calm - N/A   Overcast
1:53 AM 53.6 °F 51.8 °F 94% 30.20 in 10.0 mi SSE 3.5 mph - N/A   Overcast
2:53 AM 53.1 °F 51.1 °F 93% 30.22 in 10.0 mi South 3.5 mph - N/A   Overcast
3:53 AM 53.1 °F 50.0 °F 89% 30.20 in 10.0 mi South 3.5 mph - N/A   Mostly Cloudy
4:53 AM 53.1 °F 50.0 °F 89% 30.17 in 10.0 mi Calm Calm - N/A   Mostly Cloudy
5:53 AM 52.0 °F 51.1 °F 97% 30.17 in 5.0 mi Calm Calm - 0.04 in Rain Light Rain
6:09 AM 51.8 °F 50.0 °F 94% 30.14 in 4.0 mi Calm Calm - 0.06 in Rain Rain
6:27 AM 51.8 °F 50.0 °F 94% 30.13 in 1.8 mi West 3.5 mph - 0.14 in Rain Heavy Rain
6:36 AM 51.8 °F 50.0 °F 94% 30.12 in 3.0 mi Calm Calm - 0.17 in Rain Rain
6:53 AM 52.0 °F 50.0 °F 93% 30.14 in 4.0 mi NE 4.6 mph - 0.23 in Rain Rain
7:00 AM 51.8 °F 50.0 °F 94% 30.11 in 2.0 mi NNW 5.8 mph - 0.01 in Rain Light Rain
7:19 AM 51.8 °F 50.0 °F 94% 30.11 in 9.0 mi North 4.6 mph - 0.03 in Rain Light Rain
7:53 AM 51.1 °F 48.9 °F 92% 30.15 in 6.0 mi NNW 4.6 mph - 0.07 in Rain Light Rain
8:05 AM 51.8 °F 50.0 °F 94% 30.13 in 7.0 mi North 3.5 mph - 0.01 in Rain Light Rain
8:31 AM 51.8 °F 50.0 °F 94% 30.13 in 5.0 mi North 5.8 mph - 0.04 in Rain Light Rain
8:53 AM 51.1 °F 50.0 °F 96% 30.18 in 4.0 mi North 5.8 mph - 0.06 in Rain Light Rain
9:15 AM 51.8 °F 50.0 °F 94% 30.12 in 2.5 mi NE 6.9 mph - 0.03 in Rain Light Rain
9:22 AM 51.8 °F 50.0 °F 94% 30.12 in 4.0 mi NE 5.8 mph - 0.04 in Rain Light Rain
9:45 AM 51.8 °F 48.2 °F 88% 30.10 in 10.0 mi ENE 6.9 mph - 0.04 in   Mostly Cloudy
9:53 AM 52.0 °F 50.0 °F 93% 30.13 in 10.0 mi East 6.9 mph - 0.04 in   Mostly Cloudy
10:53 AM 55.0 °F 51.1 °F 86% 30.16 in 10.0 mi NNW 5.8 mph - N/A   Overcast
11:53 AM 55.9 °F 52.0 °F 87% 30.13 in 10.0 mi ESE 4.6 mph - 0.00 in   Overcast
12:53 PM 55.9 °F 50.0 °F 80% 30.14 in 10.0 mi Calm Calm - N/A   Overcast
1:25 PM 55.4 °F 51.8 °F 88% 30.10 in 10.0 mi South 3.5 mph - N/A   Overcast
1:53 PM 57.0 °F 51.1 °F 81% 30.12 in 10.0 mi Variable 3.5 mph - N/A   Overcast
2:15 PM 55.4 °F 51.8 °F 88% 30.11 in 2.5 mi South 6.9 mph - 0.05 in Rain Heavy Rain
2:18 PM 55.4 °F 53.6 °F 94% 30.10 in 4.0 mi South 6.9 mph - 0.05 in Rain Rain
2:53 PM 55.9 °F 53.1 °F 90% 30.14 in 6.0 mi South 8.1 mph - 0.08 in Rain Light Rain
3:17 PM 55.4 °F 53.6 °F 94% 30.10 in 10.0 mi SSE 10.4 mph - 0.01 in Rain Light Rain
3:53 PM 55.9 °F 54.0 °F 93% 30.12 in 10.0 mi South 6.9 mph - 0.01 in   Overcast
4:53 PM 57.0 °F 53.1 °F 87% 30.13 in 10.0 mi SSE 6.9 mph - N/A   Overcast
5:53 PM 57.0 °F 52.0 °F 83% 30.12 in 10.0 mi South 10.4 mph - N/A   Mostly Cloudy
6:53 PM 55.0 °F 52.0 °F 89% 30.13 in 10.0 mi South 3.5 mph - N/A   Scattered Clouds
7:53 PM 57.0 °F 50.0 °F 77% 30.12 in 10.0 mi South 9.2 mph - N/A   Mostly Cloudy
8:53 PM 55.9 °F 50.0 °F 80% 30.14 in 10.0 mi South 5.8 mph - N/A   Mostly Cloudy
9:53 PM 55.9 °F 50.0 °F 80% 30.15 in 10.0 mi South 10.4 mph - N/A   Overcast
10:53 PM 55.0 °F 50.0 °F 83% 30.16 in 10.0 mi South 6.9 mph - N/A   Scattered Clouds
11:53 PM 54.0 °F 48.0 °F 80% 30.17 in 10.0 mi South 4.6 mph - N/A   Mostly Cloudy